Time,TemperatureF,DewpointF,PressureIn,WindDirection,WindDirectionDegrees,WindSpeedMPH,WindSpeedGustMPH,Humidity,HourlyPrecipIn,Conditions,Clouds,dailyrainin,SoftwareType,DateUTC
2013-03-29 00:05:00,63.0,56.0,30.06,South,178,4.0,9.0,78,0.00,,,0.00,weatherlink.com 1.10,2013-03-29 05:05:00,
2013-03-29 00:20:00,62.9,56.0,30.06,South,182,3.0,10.0,78,0.00,,,0.00,weatherlink.com 1.10,2013-03-29 05:20:00,
2013-03-29 00:35:00,62.8,56.0,30.06,South,174,5.0,7.0,79,0.00,,,0.00,weatherlink.com 1.10,2013-03-29 05:35:00,
2013-03-29 00:50:00,63.0,56.0,30.07,South,191,6.0,12.0,78,0.00,,,0.00,weatherlink.com 1.10,2013-03-29 05:50:00,
2013-03-29 01:05:00,62.8,56.0,30.07,SSE,157,5.0,14.0,78,0.00,,,0.00,weatherlink.com 1.10,2013-03-29 06:05:00,
2013-03-29 01:21:00,62.3,56.0,30.07,SSW,203,6.0,8.0,79,0.00,,,0.00,weatherlink.com 1.10,2013-03-29 06:21:00,
2013-03-29 01:35:00,62.0,56.0,30.07,South,190,6.0,12.0,80,0.00,,,0.00,weatherlink.com 1.10,2013-03-29 06:35:00,
2013-03-29 01:50:00,61.8,56.0,30.07,South,187,4.0,7.0,80,0.00,,,0.00,weatherlink.com 1.10,2013-03-29 06:50:00,
2013-03-29 02:05:00,61.3,55.0,30.07,South,179,5.0,7.0,81,0.00,,,0.00,weatherlink.com 1.10,2013-03-29 07:05:00,
2013-03-29 02:20:00,60.9,55.0,30.06,South,184,4.0,7.0,82,0.00,,,0.00,weatherlink.com 1.10,2013-03-29 07:20:00,
2013-03-29 02:35:00,60.5,55.0,30.06,SSW,192,2.0,5.0,82,0.00,,,0.00,weatherlink.com 1.10,2013-03-29 07:35:00,
2013-03-29 02:50:00,59.9,55.0,30.06,South,190,0.0,3.0,83,0.00,,,0.00,weatherlink.com 1.10,2013-03-29 07:50:00,
2013-03-29 03:06:00,59.5,55.0,30.06,SSW,205,0.0,5.0,84,0.00,,,0.00,weatherlink.com 1.10,2013-03-29 08:06:00,
2013-03-29 03:21:00,59.0,55.0,30.06,SSW,205,0.0,4.0,85,0.00,,,0.00,weatherlink.com 1.10,2013-03-29 08:21:00,
2013-03-29 03:36:00,58.3,54.0,30.05,SSW,205,0.0,1.0,86,0.00,,,0.00,weatherlink.com 1.10,2013-03-29 08:36:00,
2013-03-29 04:06:00,57.2,54.0,30.04,SSW,205,0.0,2.0,88,0.00,,,0.00,weatherlink.com 1.10,2013-03-29 09:06:00,
2013-03-29 04:36:00,56.6,54.0,30.04,SSW,205,0.0,4.0,89,0.00,,,0.00,weatherlink.com 1.10,2013-03-29 09:36:00,
2013-03-29 05:06:00,55.6,53.0,30.03,SSW,205,0.0,2.0,90,0.00,,,0.00,weatherlink.com 1.10,2013-03-29 10:06:00,
2013-03-29 05:21:00,55.2,52.0,30.04,SSW,205,0.0,0.0,90,0.00,,,0.00,weatherlink.com 1.10,2013-03-29 10:21:00,
2013-03-29 05:36:00,54.6,52.0,30.04,SSW,205,0.0,0.0,91,0.00,,,0.00,weatherlink.com 1.10,2013-03-29 10:36:00,
2013-03-29 05:51:00,54.1,52.0,30.04,SSW,205,0.0,1.0,91,0.00,,,0.00,weatherlink.com 1.10,2013-03-29 10:51:00,
2013-03-29 06:06:00,54.2,52.0,30.04,SE,130,0.0,0.0,92,0.00,,,0.00,weatherlink.com 1.10,2013-03-29 11:06:00,
2013-03-29 06:36:00,54.0,52.0,30.05,SE,130,0.0,0.0,93,0.00,,,0.00,weatherlink.com 1.10,2013-03-29 11:36:00,
2013-03-29 06:51:00,53.9,52.0,30.05,SE,130,0.0,0.0,93,0.00,,,0.00,weatherlink.com 1.10,2013-03-29 11:51:00,
2013-03-29 07:06:00,54.0,52.0,30.05,SE,130,0.0,0.0,93,0.00,,,0.00,weatherlink.com 1.10,2013-03-29 12:06:00,
2013-03-29 07:21:00,53.9,52.0,30.06,SE,130,0.0,0.0,93,0.00,,,0.00,weatherlink.com 1.10,2013-03-29 12:21:00,
2013-03-29 07:51:00,53.2,52.0,30.07,SE,130,0.0,0.0,94,0.00,,,0.00,weatherlink.com 1.10,2013-03-29 12:51:00,
2013-03-29 08:06:00,54.0,53.0,30.06,SE,130,0.0,0.0,95,0.00,,,0.00,weatherlink.com 1.10,2013-03-29 13:06:00,
2013-03-29 08:21:00,55.1,54.0,30.06,SE,130,0.0,2.0,95,0.00,,,0.00,weatherlink.com 1.10,2013-03-29 13:21:00,
2013-03-29 08:36:00,56.8,55.0,30.06,SE,130,0.0,2.0,94,0.00,,,0.00,weatherlink.com 1.10,2013-03-29 13:36:00,
2013-03-29 08:51:00,58.3,56.0,30.06,SE,130,0.0,2.0,91,0.00,,,0.00,weatherlink.com 1.10,2013-03-29 13:51:00,
2013-03-29 09:06:00,59.7,57.0,30.06,South,174,2.0,6.0,89,0.00,,,0.00,weatherlink.com 1.10,2013-03-29 14:06:00,
2013-03-29 09:21:00,62.8,57.0,30.06,SSW,213,10.0,12.0,80,0.00,,,0.00,weatherlink.com 1.10,2013-03-29 14:21:00,
2013-03-29 09:36:00,64.5,57.0,30.07,SSW,192,5.0,13.0,77,0.00,,,0.00,weatherlink.com 1.10,2013-03-29 14:36:00,
2013-03-29 10:06:00,65.4,56.0,30.07,SSW,202,9.0,19.0,71,0.00,,,0.00,weatherlink.com 1.10,2013-03-29 15:06:00,
2013-03-29 10:21:00,67.0,56.0,30.08,South,180,8.0,15.0,69,0.00,,,0.00,weatherlink.com 1.10,2013-03-29 15:21:00,
2013-03-29 10:36:00,67.0,57.0,30.08,SW,217,2.0,15.0,70,0.00,,,0.00,weatherlink.com 1.10,2013-03-29 15:36:00,
2013-03-29 10:52:00,67.8,56.0,30.08,SW,221,8.0,11.0,67,0.00,,,0.00,weatherlink.com 1.10,2013-03-29 15:52:00,
2013-03-29 11:07:00,68.6,56.0,30.07,South,190,8.0,13.0,65,0.00,,,0.00,weatherlink.com 1.10,2013-03-29 16:07:00,
2013-03-29 11:22:00,71.2,57.0,30.07,SSW,202,8.0,15.0,62,0.00,,,0.00,weatherlink.com 1.10,2013-03-29 16:22:00,
2013-03-29 11:37:00,70.1,56.0,30.07,SSW,193,6.0,15.0,61,0.00,,,0.00,weatherlink.com 1.10,2013-03-29 16:37:00,
2013-03-29 11:52:00,71.0,56.0,30.07,SW,214,13.0,15.0,60,0.00,,,0.00,weatherlink.com 1.10,2013-03-29 16:52:00,
2013-03-29 12:07:00,72.0,57.0,30.06,South,186,7.0,15.0,59,0.00,,,0.00,weatherlink.com 1.10,2013-03-29 17:07:00,
2013-03-29 12:22:00,72.7,57.0,30.06,South,176,10.0,15.0,58,0.00,,,0.00,weatherlink.com 1.10,2013-03-29 17:22:00,
2013-03-29 12:37:00,72.0,57.0,30.05,SSE,159,13.0,18.0,59,0.00,,,0.00,weatherlink.com 1.10,2013-03-29 17:37:00,
2013-03-29 12:52:00,71.6,57.0,30.05,South,184,11.0,17.0,60,0.00,,,0.00,weatherlink.com 1.10,2013-03-29 17:52:00,
2013-03-29 13:07:00,72.5,57.0,30.05,South,175,10.0,13.0,58,0.00,,,0.00,weatherlink.com 1.10,2013-03-29 18:07:00,
2013-03-29 13:22:00,72.0,57.0,30.04,SSW,209,6.0,13.0,60,0.00,,,0.00,weatherlink.com 1.10,2013-03-29 18:22:00,
2013-03-29 13:37:00,72.7,57.0,30.03,SW,217,6.0,13.0,59,0.00,,,0.00,weatherlink.com 1.10,2013-03-29 18:37:00,
2013-03-29 13:52:00,72.9,57.0,30.03,SSW,208,8.0,13.0,58,0.00,,,0.00,weatherlink.com 1.10,2013-03-29 18:52:00,
2013-03-29 14:07:00,73.4,57.0,30.02,SSE,150,7.0,16.0,57,0.00,,,0.00,weatherlink.com 1.10,2013-03-29 19:07:00,
2013-03-29 14:22:00,74.1,57.0,30.01,South,186,13.0,15.0,55,0.00,,,0.00,weatherlink.com 1.10,2013-03-29 19:22:00,
2013-03-29 14:37:00,74.4,57.0,30.01,SSW,194,15.0,15.0,55,0.00,,,0.00,weatherlink.com 1.10,2013-03-29 19:37:00,
2013-03-29 14:52:00,74.2,57.0,30.00,SSW,192,6.0,16.0,56,0.00,,,0.00,weatherlink.com 1.10,2013-03-29 19:52:00,
2013-03-29 15:07:00,74.8,57.0,30.00,South,173,8.0,12.0,55,0.00,,,0.00,weatherlink.com 1.10,2013-03-29 20:07:00,
2013-03-29 15:22:00,75.1,57.0,29.99,SW,221,9.0,15.0,54,0.00,,,0.00,weatherlink.com 1.10,2013-03-29 20:22:00,
2013-03-29 15:37:00,75.3,56.0,29.98,South,189,9.0,16.0,52,0.00,,,0.00,weatherlink.com 1.10,2013-03-29 20:37:00,
2013-03-29 15:52:00,75.3,57.0,29.98,South,187,11.0,14.0,53,0.00,,,0.00,weatherlink.com 1.10,2013-03-29 20:52:00,
2013-03-29 16:07:00,75.6,57.0,29.97,SSW,192,7.0,16.0,52,0.00,,,0.00,weatherlink.com 1.10,2013-03-29 21:07:00,
2013-03-29 16:22:00,75.6,57.0,29.97,SSW,192,12.0,16.0,52,0.00,,,0.00,weatherlink.com 1.10,2013-03-29 21:22:00,
2013-03-29 16:37:00,75.4,57.0,29.96,South,188,7.0,18.0,53,0.00,,,0.00,weatherlink.com 1.10,2013-03-29 21:37:00,
2013-03-29 16:52:00,75.8,57.0,29.96,SSE,161,9.0,14.0,52,0.00,,,0.00,weatherlink.com 1.10,2013-03-29 21:52:00,
2013-03-29 17:06:00,76.1,57.0,29.96,South,188,7.0,14.0,51,0.00,,,0.00,weatherlink.com 1.10,2013-03-29 22:06:00,
2013-03-29 17:21:00,75.8,57.0,29.96,SSE,156,8.0,16.0,52,0.00,,,0.00,weatherlink.com 1.10,2013-03-29 22:21:00,
2013-03-29 17:36:00,76.3,57.0,29.96,South,178,8.0,13.0,51,0.00,,,0.00,weatherlink.com 1.10,2013-03-29 22:36:00,
2013-03-29 17:52:00,75.8,57.0,29.96,SSW,196,7.0,13.0,52,0.00,,,0.00,weatherlink.com 1.10,2013-03-29 22:52:00,
2013-03-29 18:06:00,75.4,56.0,29.96,SSW,200,8.0,16.0,52,0.00,,,0.00,weatherlink.com 1.10,2013-03-29 23:06:00,
2013-03-29 18:21:00,75.1,57.0,29.96,South,182,5.0,12.0,54,0.00,,,0.00,weatherlink.com 1.10,2013-03-29 23:21:00,
2013-03-29 18:36:00,75.0,57.0,29.96,SSW,200,6.0,13.0,54,0.00,,,0.00,weatherlink.com 1.10,2013-03-29 23:36:00,
2013-03-29 18:51:00,74.5,57.0,29.96,SSW,211,6.0,13.0,55,0.00,,,0.00,weatherlink.com 1.10,2013-03-29 23:51:00,
2013-03-29 19:06:00,74.2,57.0,29.96,SSW,194,9.0,14.0,56,0.00,,,0.00,weatherlink.com 1.10,2013-03-30 00:06:00,
2013-03-29 19:21:00,74.0,57.0,29.95,South,175,5.0,11.0,56,0.00,,,0.00,weatherlink.com 1.10,2013-03-30 00:21:00,
2013-03-29 19:36:00,73.4,57.0,29.96,South,182,5.0,10.0,57,0.00,,,0.00,weatherlink.com 1.10,2013-03-30 00:36:00,
2013-03-29 19:51:00,72.6,57.0,29.96,South,181,4.0,9.0,59,0.00,,,0.00,weatherlink.com 1.10,2013-03-30 00:51:00,
2013-03-29 20:06:00,71.9,57.0,29.96,South,171,3.0,8.0,60,0.00,,,0.00,weatherlink.com 1.10,2013-03-30 01:06:00,
2013-03-29 20:21:00,71.5,57.0,29.96,SSE,159,1.0,8.0,60,0.00,,,0.00,weatherlink.com 1.10,2013-03-30 01:21:00,
2013-03-29 20:37:00,71.1,57.0,29.97,SSE,159,0.0,2.0,61,0.00,,,0.00,weatherlink.com 1.10,2013-03-30 01:37:00,
2013-03-29 20:51:00,70.7,57.0,29.97,SSE,159,0.0,0.0,62,0.00,,,0.00,weatherlink.com 1.10,2013-03-30 01:51:00,
2013-03-29 21:07:00,70.3,57.0,29.98,SSE,159,0.0,0.0,63,0.00,,,0.00,weatherlink.com 1.10,2013-03-30 02:07:00,
2013-03-29 21:22:00,70.0,57.0,29.98,SSE,159,0.0,1.0,63,0.00,,,0.00,weatherlink.com 1.10,2013-03-30 02:22:00,
2013-03-29 21:37:00,69.4,57.0,29.98,SSE,159,0.0,2.0,64,0.00,,,0.00,weatherlink.com 1.10,2013-03-30 02:37:00,
2013-03-29 21:52:00,68.7,56.0,29.98,SSE,159,0.0,2.0,65,0.00,,,0.00,weatherlink.com 1.10,2013-03-30 02:52:00,
2013-03-29 22:07:00,68.0,56.0,29.98,SSE,159,0.0,1.0,66,0.00,,,0.00,weatherlink.com 1.10,2013-03-30 03:07:00,
2013-03-29 22:22:00,67.1,56.0,29.98,SSE,159,0.0,0.0,68,0.00,,,0.00,weatherlink.com 1.10,2013-03-30 03:22:00,
2013-03-29 22:37:00,66.2,56.0,30.00,SSE,159,0.0,0.0,69,0.00,,,0.00,weatherlink.com 1.10,2013-03-30 03:37:00,
2013-03-29 22:52:00,65.3,56.0,30.00,SSE,159,0.0,0.0,71,0.00,,,0.00,weatherlink.com 1.10,2013-03-30 03:52:00,
2013-03-29 23:07:00,64.4,55.0,30.01,SSE,159,0.0,0.0,72,0.00,,,0.00,weatherlink.com 1.10,2013-03-30 04:07:00,
2013-03-29 23:22:00,64.2,55.0,29.99,SSE,159,2.0,5.0,73,0.00,,,0.00,weatherlink.com 1.10,2013-03-30 04:22:00,
2013-03-29 23:37:00,64.8,56.0,29.99,South,170,6.0,7.0,72,0.00,,,0.00,weatherlink.com 1.10,2013-03-30 04:37:00,
2013-03-29 23:52:00,66.0,56.0,29.98,SSE,164,5.0,10.0,71,0.00,,,0.00,weatherlink.com 1.10,2013-03-30 04:52:00,